Greenwood, MS

6:48 PM CDT on August 22, 2017 (GMT -0500)
Greenwood-Leflore

Weather History for KGWO - November, 2013

Change the Weather History Date:

Friday, November 1, 2013

  Actual Average Record
Temperature  
Mean Temperature 61 °F 59 °F  
Max Temperature 72 °F 72 °F 89 °F (1972)
Min Temperature 49 °F 47 °F 24 °F (1993)
Degree Days  
Heating Degree Days 4 7  
Month to date heating degree days 4 7  
Since 1 July heating degree days 120 138  
Cooling Degree Days 0 1  
Month to date cooling degree days 0 1  
Year to date cooling degree days 2092 2143  
Growing Degree Days 10 (Base 50)    
Moisture  
Dew Point 51 °F    
Average Humidity 70    
Maximum Humidity 100    
Minimum Humidity 40    
Precipitation  
Precipitation 0.00 in 0.12 in 1.52 in (1996)
Month to date precipitation 0.00 0.12  
Year to date precipitation 49.72 41.72  
Sea Level Pressure  
Sea Level Pressure 29.86 in    
Wind  
Wind Speed 3 mph (SW)    
Max Wind Speed 12 mph    
Max Gust Speed 17 mph    
Visibility 7 miles    
Events Fog    
T = Trace of Precipitation, MM = Missing Value Source: NWS Daily Summary

Daily Weather History Graph

Daily Weather History Graph

Search for Another Location

Airport or City:

Trip Planner

Search our weather history database for the weather conditions in past years. The results will help you decide how hot, cold, wet, or windy it might be!

Date:

Astronomy

Nov. 01, 2013 Rise Set
Actual Time 7:19 AM CDT 6:08 PM CDT
Civil Twilight 6:53 AM CDT 6:33 PM CDT
Nautical Twilight 6:24 AM CDT 7:03 PM CDT
Astronomical Twilight 5:55 AM CDT 7:32 PM CDT
Moon 5:16 AM CDT (11/1) 4:57 PM CDT (11/1)
Length of Visible Light 11h 40m
Length of Day
10h 48m
Waning Crescent, 4% of the Moon is Illuminated
Nov 1
Waning Crescent
Nov 3
New
Nov 9
First Quarter
Nov 17
Full
Nov 25
Last Quarter

Hourly Weather History & Observations

Time (CDT) Temp. Dew Point Humidity Pressure Visibility Wind Dir Wind Speed Gust Speed Precip Events Conditions
12:53 AM 64.0 °F 62.1 °F 93% 29.82 in 10.0 mi SW 5.8 mph - N/A   Clear
1:53 AM 63.0 °F 61.0 °F 93% 29.84 in 10.0 mi Calm Calm - N/A   Partly Cloudy
2:53 AM 60.1 °F 53.1 °F 78% 29.84 in 10.0 mi WNW 4.6 mph - N/A   Clear
3:53 AM 57.0 °F 52.0 °F 83% 29.84 in 10.0 mi Calm Calm - N/A   Clear
4:53 AM 53.1 °F 51.1 °F 93% 29.85 in 10.0 mi Calm Calm - N/A   Clear
5:38 AM 51.8 °F 50.0 °F 94% 29.86 in 1.2 mi Calm Calm - N/A   Partly Cloudy
5:42 AM 50.0 °F 48.2 °F 94% 29.86 in 0.8 mi Calm Calm - N/A   Mist
5:53 AM 51.1 °F 50.0 °F 96% 29.86 in 0.8 mi Calm Calm - N/A   Clear
5:59 AM 51.8 °F 51.8 °F 100% 29.86 in 2.5 mi Calm Calm - N/A   Clear
6:06 AM 51.8 °F 50.0 °F 94% 29.86 in 7.0 mi Calm Calm - N/A   Clear
6:15 AM 50.0 °F 50.0 °F 100% 29.86 in 1.8 mi Calm Calm - N/A   Clear
6:26 AM 50.0 °F 48.2 °F 94% 29.86 in 0.8 mi Calm Calm - N/A   Clear
6:40 AM 48.2 °F 48.2 °F 100% 29.86 in 0.2 mi Calm Calm - N/A Fog Fog
6:53 AM 51.1 °F 50.0 °F 96% 29.87 in 0.5 mi SSW 3.5 mph - N/A Fog Fog
7:20 AM 50.0 °F 48.2 °F 94% 29.87 in 0.2 mi Calm Calm - N/A Fog Fog
7:53 AM 50.0 °F 50.0 °F 100% 29.87 in 0.2 mi Calm Calm - N/A Fog Fog
8:30 AM 53.6 °F 53.6 °F 100% 29.88 in 1.0 mi Calm Calm - N/A   Clear
8:39 AM 53.6 °F 53.6 °F 100% 29.88 in 10.0 mi Calm Calm - N/A   Clear
8:53 AM 55.0 °F 54.0 °F 96% 29.88 in 10.0 mi SSW 3.5 mph - N/A   Clear
9:53 AM 62.1 °F 55.0 °F 78% 29.90 in 10.0 mi SSW 3.5 mph - N/A   Clear
10:53 AM 64.0 °F 54.0 °F 70% 29.89 in 10.0 mi South 6.9 mph - N/A   Clear
11:53 AM 68.0 °F 51.1 °F 55% 29.88 in 10.0 mi WSW 5.8 mph - N/A   Clear
12:53 PM 69.1 °F 51.1 °F 53% 29.87 in 10.0 mi Variable 5.8 mph - N/A   Clear
1:53 PM 71.1 °F 48.0 °F 44% 29.85 in 9.0 mi Variable 4.6 mph - N/A   Clear
2:53 PM 71.1 °F 48.0 °F 44% 29.84 in 6.0 mi WNW 4.6 mph - N/A   Haze
3:53 PM 71.1 °F 46.9 °F 42% 29.83 in 4.0 mi Variable 3.5 mph - N/A   Haze
4:53 PM 70.0 °F 45.0 °F 41% 29.83 in 8.0 mi West 4.6 mph - N/A   Clear
5:53 PM 64.9 °F 51.1 °F 61% 29.84 in 10.0 mi Calm Calm - N/A   Clear
6:53 PM 57.9 °F 54.0 °F 87% 29.86 in 10.0 mi Calm Calm - N/A   Clear
7:53 PM 55.9 °F 53.1 °F 90% 29.88 in 10.0 mi Calm Calm - N/A   Clear
8:53 PM 55.0 °F 54.0 °F 96% 29.89 in 10.0 mi South 3.5 mph - N/A   Clear
9:53 PM 54.0 °F 52.0 °F 93% 29.90 in 10.0 mi South 3.5 mph - N/A   Clear
10:53 PM 53.1 °F 51.1 °F 93% 29.91 in 10.0 mi Calm Calm - N/A   Clear
11:53 PM 53.1 °F 51.1 °F 93% 29.91 in 10.0 mi South 3.5 mph - N/A   Clear